TESS (43435 NORAD) Tracking and Keplerian Element Data

This shows tracking and keplerian element data for the satellite.

Feedback or suggestion? Click here.




ElementValue
Catalog43435
NameTESS
Epoch Orbit131
Epoch Day170.57268277
Epoch Year2024
RAAN63.8842
Inclination48.9447
Eccentricity0.4097281
Argument of Perigee134.3313
Mean Anonmoly6.6685
Mean Motion0.07230443
Decay Rate-7.53E-06
L11 43435U 18038A 24170.57268277 -.00000753 00000+0 00000+0 0 9991
L22 43435 48.9447 63.8842 4097281 134.3313 6.6685 0.07230443 1316



Live tracking and technical data element details for TESS (NORAD 43435). TESS can be tracked NOW for your location showing map with azimuth and elevation plus other details from your city location.







IsCatalogInMostPopularTable: catalog: 43435, numindb: 630
Update: records affected: 1



GetName: 43435 TESS

Hit Count: updated at: Mon, 17 Jun 2024 23:05:55 GMT